Location: Hurstbourne Priors
(51.2000°N, 1.3667°W)
Time: 22:06:58
(UTC+00:00)

Transit 4A - Pass Details

Date: 28 April 2021
Orbit: 871 x 974 km, 66.8° (Epoch: 16 May)

Event Time Altitude Azimuth Distance (km) Brightness Sun altitude
Rises 07:33:09 0° 315° (NW) 3,506 10.5 25.1°
Reaches altitude 10° 07:36:08 10° 302° (WNW) 2,549 9.8 25.6°
Maximum altitude 07:40:37 23° 252° (WSW) 1,770 9.1 26.3°
Drops below altitude 10° 07:45:03 10° 202° (SSW) 2,513 10.1 27.0°
Sets 07:47:59 0° 188° (S) 3,445 10.9 27.4°
